Location: Jackson Park
(37.2862°N, 79.9123°W)
Time: 02:28:31
(UTC+00:00)

Tiros 1 despin weight - Pass Details

Date: 19 May 2026
Orbit: 554 x 591 km, 48.2° (Epoch: 6 June)

Event Time Altitude Azimuth Distance (km) Brightness Sun altitude
Rises 07:10:05 0° 200° (SSW) 2,774 - -26.9°
Reaches altitude 10° 07:12:45 10° 184° (S) 1,872 - -26.7°
Maximum altitude 07:16:03 22° 134° (SE) 1,271 - -26.3°
Exits shadow 07:17:21 19° 108° (ESE) 1,380 ? -26.2°
Drops below altitude 10° 07:19:20 10° 83° (E) 1,862 ? -26.0°
Sets 07:21:57 0° 68° (ENE) 2,754 ? -25.7°
